Wind_Speed
61 61 61 60 59 60 61 62 62 59 55 52 48 46 45 44 44 46 46 44 41 39 39 39 37 36 37 39 37 32 30 30 31 34 36 33 31 34 35 33 29 25 22 24 27 30 33 36 39 39 35 29 25 24 24 23 24 25 26 26 25 24 24 25 26 27 28 27 25 23 22 21 22 22 22 22 22 21 20 19 18 17 16 17 18
62 60 60 61 62 62 60 58 56 54 52 51 50 48 46 45 45 47 46 44 42 41 41 39 38 38 39 39 36 33 31 30 31 34 35 33 31 33 35 34 30 26 22 21 21 23 27 32 37 38 35 31 28 27 25 23 23 24 26 27 27 27 27 28 30 30 30 30 28 26 24 23 23 21 21 22 24 24 23 21 19 18 18 17 18
61 59 61 63 61 59 58 55 52 53 53 53 51 48 46 45 44 45 45 45 45 44 42 40 40 39 37 37 36 34 32 30 31 34 34 33 32 32 35 35 32 29 27 24 22 21 22 28 36 39 37 34 31 30 26 24 23 24 25 26 27 29 30 31 32 30 29 29 28 27 26 25 24 21 20 20 21 24 26 25 23 21 20 19 19
60 57 58 58 57 56 56 55 55 55 56 55 53 49 47 45 46 47 48 47 44 41 40 40 39 37 35 36 37 34 32 31 31 33 35 33 33 34 35 36 35 33 31 29 27 25 23 25 33 40 40 36 33 32 28 25 24 23 23 24 25 28 31 33 31 28 28 27 27 27 27 27 27 25 24 23 22 22 24 26 26 24 22 22 21
60 57 51 50 53 55 56 58 59 59 58 57 55 51 48 47 47 48 47 43 38 36 38 37 35 36 36 35 36 34 33 31 30 32 35 33 33 34 35 37 37 35 34 32 29 28 27 25 29 37 41 38 35 35 32 29 26 25 24 24 25 26 29 31 30 29 28 28 27 28 28 29 29 29 29 28 27 25 23 23 25 26 25 25 24
58 58 53 53 56 56 56 59 60 60 59 58 55 51 49 49 49 48 47 44 40 37 37 36 35 37 38 36 33 32 31 30 29 30 33 33 32 33 35 38 38 37 35 32 27 27 28 27 27 32 39 41 36 34 34 34 32 30 29 28 28 28 28 28 28 29 30 29 29 29 29 30 31 31 31 31 31 30 27 24 25 26 27 27 25
55 56 56 59 61 56 53 56 57 57 57 56 54 52 51 51 50 49 49 48 45 42 40 40 40 40 39 35 30 29 29 29 28 28 31 32 31 32 34 38 38 38 37 32 25 25 27 27 29 29 34 40 37 29 28 32 35 36 35 34 33 33 32 31 29 30 31 31 31 31 32 32 33 33 32 32 32 32 30 27 26 26 27 27 26
54 54 56 58 59 55 51 51 54 54 52 52 52 51 50 49 48 48 47 47 46 45 42 43 43 42 39 35 29 27 28 27 27 27 30 31 30 31 35 39 39 38 37 31 24 24 26 27 29 30 31 37 39 30 24 25 30 33 36 38 39 39 38 37 36 34 35 35 36 36 36 36 35 34 32 30 30 31 30 28 27 26 25 25 25
53 52 54 55 55 55 53 49 49 50 48 46 47 48 47 45 45 47 47 47 49 48 45 44 43 41 38 34 29 27 27 26 26 26 28 29 29 30 36 39 39 38 35 30 25 24 27 29 30 32 31 33 37 33 27 26 28 31 34 37 40 42 42 40 40 40 40 39 40 39 38 37 36 34 32 29 28 28 29 28 27 26 24 24 25
53 52 52 53 53 54 54 51 48 48 47 43 43 46 47 45 46 47 45 45 48 48 46 46 44 40 35 31 28 27 26 26 25 25 26 28 27 30 36 39 39 39 35 30 27 26 28 31 31 30 29 31 33 32 30 30 31 34 35 36 38 42 44 43 41 41 40 39 37 36 36 35 34 34 34 31 27 26 27 28 28 27 25 25 25
53 55 55 56 56 57 57 57 53 50 50 47 45 46 47 46 46 44 40 39 42 43 43 44 43 40 34 31 30 28 27 27 26 25 27 27 27 29 35 40 40 40 38 34 31 29 30 30 29 27 25 27 28 28 28 28 30 32 35 37 37 38 41 44 44 42 40 37 34 33 32 32 31 32 34 35 31 28 27 28 29 29 28 28 27
51 54 57 59 60 62 62 62 61 58 57 54 48 45 44 44 44 44 40 38 39 39 40 41 41 39 35 33 33 30 29 29 28 28 28 28 28 29 33 38 40 40 39 37 34 33 32 30 29 28 26 26 27 28 30 30 30 31 34 37 39 38 36 39 42 41 36 33 31 31 32 31 31 32 33 35 35 32 30 29 31 32 31 30 28
48 51 53 55 57 60 61 62 63 63 63 61 52 45 43 42 43 44 41 37 37 37 38 38 37 38 38 37 35 32 31 30 29 29 29 30 31 32 33 34 36 38 39 39 37 37 35 32 32 32 29 28 29 31 33 33 33 34 36 38 40 40 37 35 37 36 33 32 31 32 33 34 34 35 35 36 36 34 31 30 31 31 32 31 28
46 47 48 50 52 54 56 57 58 59 60 61 58 54 51 47 44 43 39 34 33 35 38 38 36 37 38 39 36 34 32 31 30 30 31 32 33 35 36 35 34 35 37 38 39 41 39 36 34 33 32 31 32 34 34 36 37 39 40 40 40 41 41 37 35 35 34 33 33 34 36 37 38 40 39 39 39 36 33 33 32 31 31 31 30
42 44 44 45 47 48 50 51 52 53 55 57 58 59 58 55 51 47 43 38 36 37 39 38 37 37 37 38 37 35 34 32 31 32 33 34 34 35 36 37 37 36 36 37 40 43 42 39 37 35 34 34 35 35 36 39 40 42 42 41 39 39 42 42 38 37 38 38 37 38 38 39 40 39 38 38 39 40 38 37 36 34 33 32 32
39 39 41 41 42 43 45 46 47 48 50 52 53 55 55 55 56 55 54 51 48 46 45 43 41 37 35 37 38 37 36 34 33 33 34 34 35 37 37 37 36 36 37 37 39 43 43 41 40 39 37 35 34 33 35 37 39 41 40 37 35 36 40 44 43 40 40 41 41 41 41 41 39 36 34 33 35 38 40 41 40 38 37 36 36
36 36 37 38 38 39 40 42 43 44 46 47 49 50 51 52 54 55 55 55 53 52 50 47 44 39 35 36 38 38 38 36 35 35 36 36 36 38 39 39 38 37 37 37 38 41 43 43 43 41 40 38 35 34 34 34 36 38 35 31 31 32 35 41 46 46 43 43 43 40 38 38 38 38 36 33 32 33 36 40 42 42 42 41 40
33 34 34 35 36 36 37 38 40 41 43 44 45 46 47 49 51 52 53 52 50 50 50 49 46 42 38 38 39 40 40 38 36 36 37 37 38 39 40 40 41 39 38 38 39 40 41 43 44 43 43 42 39 36 35 35 36 34 29 27 26 27 28 33 40 45 45 42 37 30 27 29 32 35 36 36 35 33 33 35 37 40 41 42 42
32 32 32 33 34 34 35 35 37 38 40 41 42 43 44 46 47 49 50 52 51 49 50 50 49 47 43 41 42 42 42 40 38 38 38 38 39 41 41 42 42 41 41 40 41 40 40 43 45 44 45 44 40 36 35 35 34 31 27 25 23 23 24 26 29 33 34 31 25 22 21 22 24 27 30 33 35 35 34 33 32 33 35 37 38
31 31 31 32 32 33 33 33 34 36 37 39 40 41 42 43 44 46 48 51 53 52 51 51 50 48 46 44 44 44 45 44 42 41 40 40 40 41 42 43 44 43 42 41 41 42 41 42 45 46 45 44 40 37 37 36 35 33 31 28 26 24 24 25 26 26 26 24 23 23 22 21 22 23 24 26 29 32 34 34 32 31 31 31 32
31 30 30 31 31 31 32 32 33 33 35 36 38 38 39 40 41 43 44 47 51 54 54 53 51 49 47 46 46 46 46 45 43 43 43 42 42 42 41 42 44 45 44 42 41 42 42 43 45 46 46 44 42 40 40 39 38 38 36 33 31 30 30 29 29 28 26 25 25 25 24 23 23 23 23 24 25 28 32 36 37 36 34 33 32
31 31 31 31 31 31 31 32 32 32 33 34 35 36 37 38 39 40 41 44 47 50 54 55 54 52 49 48 48 47 46 45 42 40 41 43 43 43 43 42 44 45 45 44 42 42 43 44 45 47 47 45 44 44 43 43 42 41 40 38 36 36 36 36 35 33 31 30 30 29 29 28 27 26 25 24 24 26 29 34 37 40 40 39 38
32 32 32 32 32 32 32 32 32 33 33 33 34 34 35 36 37 38 39 40 43 46 50 54 56 55 53 51 50 49 48 47 45 41 39 41 43 44 44 44 44 46 45 43 43 43 44 45 46 47 47 45 44 44 45 46 45 43 42 42 41 41 40 40 39 37 35 36 36 35 35 34 34 32 27 24 25 28 30 32 33 36 38 40 41
33 32 32 32 33 33 33 33 34 34 34 35 34 34 34 35 36 38 38 39 40 43 46 51 54 56 56 54 53 52 50 50 50 46 41 40 43 44 45 45 44 46 46 44 44 45 45 45 46 48 47 45 44 44 46 48 49 48 46 44 44 45 44 42 41 40 39 39 39 39 38 37 37 36 33 29 28 29 32 34 33 32 33 35 37
34 34 34 34 34 34 35 35 35 35 36 36 36 36 35 35 35 37 39 39 40 41 42 46 50 53 55 55 55 56 54 52 52 52 47 42 42 44 45 47 46 46 47 45 45 46 47 47 47 48 49 48 46 45 46 48 51 51 49 47 46 45 45 44 43 43 43 43 43 42 41 41 39 38 38 37 35 32 32 36 35 31 31 32 33
37 37 36 36 36 36 36 36 36 36 36 37 37 38 37 37 36 37 38 39 40 40 41 42 45 48 51 52 54 57 58 56 55 55 52 47 45 45 44 45 47 47 47 47 46 47 47 48 48 49 50 51 50 49 48 49 50 50 49 48 48 47 47 46 45 45 45 46 46 45 44 45 43 41 41 41 40 37 36 37 35 31 31 32 32
41 40 39 39 39 38 38 38 37 37 37 37 38 38 39 39 39 39 38 39 40 40 40 40 42 44 46 48 50 53 56 58 58 57 56 52 49 48 47 45 46 47 48 48 48 48 47 48 50 51 51 51 51 50 50 50 50 50 49 48 48 49 49 49 47 46 46 47 48 47 46 47 46 44 44 44 43 42 40 39 37 35 34 34 34
44 43 43 42 41 40 40 39 39 39 38 38 38 39 39 40 41 41 41 40 41 41 41 41 41 42 43 45 46 48 51 55 57 58 60 58 54 52 52 50 47 47 49 49 48 48 48 49 50 52 52 53 52 52 51 51 52 52 51 50 49 50 51 51 50 50 49 49 49 49 48 48 48 47 47 47 46 46 46 44 41 39 38 36 36
45 45 45 44 44 43 42 42 41 41 41 40 41 40 40 40 41 42 43 43 43 43 43 43 42 42 43 43 44 45 47 49 53 55 58 60 59 57 56 56 53 50 50 51 52 50 48 49 51 52 53 54 55 55 53 53 54 54 54 53 52 53 53 53 53 53 52 51 51 52 52 52 51 50 49 50 49 48 48 48 46 44 42 40 39
45 46 46 46 46 45 45 44 44 43 43 42 43 43 42 42 42 42 43 44 44 45 45 45 45 44 44 45 45 46 46 47 49 51 54 58 60 60 60 60 59 56 53 52 54 54 52 52 53 53 54 55 56 56 56 56 56 56 56 56 56 56 56 56 56 56 55 54 53 52 52 52 52 52 51 51 50 50 49 49 49 48 46 44 43
46 46 46 46 47 47 46 46 46 46 46 45 45 45 45 45 45 44 44 44 45 45 46 46 47 47 47 47 47 47 48 48 49 50 51 54 57 60 62 63 63 62 59 55 54 55 55 56 56 56 56 57 57 57 57 58 58 59 59 59 59 59 59 59 58 58 57 56 54 52 51 51 52 53 53 52 52 51 51 51 51 51 50 49 47
48 47 47 47 47 47 47 47 47 47 48 48 48 48 48 47 47 47 47 47 47 46 46 47 47 48 49 49 50 50 50 50 50 51 51 52 54 57 60 63 65 65 64 61 58 56 55 56 58 59 59 59 59 59 59 59 60 60 61 61 61 61 61 61 60 59 58 56 54 53 52 53 53 55 55 54 53 53 54 54 54 54 53 52 51
51 51 50 50 49 48 48 47 48 49 49 49 50 50 50 50 50 50 50 50 50 49 49 49 49 49 50 50 51 51 51 51 52 52 52 53 54 55 58 60 63 65 66 66 64 61 59 57 57 59 61 62 62 62 62 62 62 62 62 62 63 63 63 62 61 60 59 57 55 54 55 55 55 56 57 57 56 54 54 55 56 55 55 54 53
52 54 54 53 52 51 50 50 50 51 51 51 51 51 51 51 51 52 52 52 52 52 52 52 52 52 52 52 52 52 53 53 53 53 54 54 54 55 57 59 61 64 66 67 67 67 65 62 60 59 60 62 64 65 65 65 65 65 65 65 64 64 64 64 63 62 61 59 58 57 57 57 57 57 58 58 58 57 57 56 56 56 56 55 55
55 57 57 56 55 54 53 53 53 53 53 53 53 53 52 53 53 53 53 54 55 55 55 54 54 54 54 54 54 54 54 54 54 54 55 55 56 56 57 58 60 61 64 67 69 70 69 68 66 64 63 62 63 64 67 68 68 68 68 68 67 67 67 67 67 66 64 64 63 63 63 62 62 61 61 61 62 63 63 62 61 60 59 60 60
61 60 60 58 56 56 56 57 58 57 56 55 54 55 55 54 54 55 55 55 56 57 57 56 56 56 56 56 57 56 56 56 56 56 56 57 57 58 58 59 60 61 62 64 67 70 72 72 71 69 68 67 66 64 65 67 69 70 71 70 70 70 70 71 71 71 70 69 69 69 69 69 69 68 68 68 67 68 68 67 66 65 64 65 65
64 62 61 59 57 57 58 59 61 62 60 58 57 58 58 57 56 57 57 57 57 57 57 57 58 59 59 58 59 59 58 58 58 57 58 58 58 59 60 60 61 62 63 63 65 67 70 73 74 74 72 71 71 70 67 66 67 68 70 71 72 72 73 73 73 73 73 73 73 73 73 73 73 73 73 72 71 70 70 70 70 69 68 68 67
62 60 60 59 58 57 59 60 61 62 62 62 62 63 63 61 60 59 59 58 57 58 59 59 59 60 61 61 61 61 61 60 60 60 60 60 60 60 61 62 62 63 63 64 65 66 67 70 73 75 76 75 74 74 73 70 68 68 68 70 71 72 73 74 74 75 74 74 73 73 73 73 73 73 73 72 70 69 68 67 67 68 68 68 68
59 56 56 57 56 55 57 59 60 61 61 61 63 65 66 66 64 63 61 60 60 60 60 60 61 61 62 63 63 63 63 63 62 62 63 63 63 63 63 63 64 65 65 65 66 67 68 69 70 72 74 76 77 77 76 75 73 72 71 70 71 72 73 74 75 76 75 75 75 74 74 74 74 74 73 72 71 70 69 68 68 68 68 68 68
56 54 53 53 53 53 53 54 56 57 58 59 60 61 63 66 67 66 64 64 63 63 63 62 62 63 63 64 64 64 65 65 65 65 65 65 66 66 66 66 66 66 67 67 68 68 69 70 71 71 72 74 76 77 78 77 76 75 75 73 73 74 75 75 76 77 76 76 76 76 77 78 78 78 77 76 75 73 72 71 71 70 69 68 67
55 54 52 52 52 52 51 51 53 54 53 54 56 57 58 61 64 65 65 65 65 65 65 65 65 66 66 65 65 65 65 65 66 66 67 68 68 68 68 68 69 69 69 69 69 70 70 71 72 72 73 73 74 75 77 78 77 77 77 76 76 76 76 76 77 79 79 78 77 77 78 78 78 79 78 78 78 78 76 76 75 74 72 70 69
55 55 53 52 52 53 52 51 53 53 50 48 50 52 54 57 59 62 63 64 65 65 65 65 66 68 69 68 67 66 66 67 67 67 68 69 70 71 71 71 71 72 72 72 72 72 72 73 74 74 75 75 76 76 76 77 77 78 78 79 78 78 78 77 78 80 80 80 80 79 79 79 78 78 78 78 78 78 77 77 76 76 75 75 74
57 56 56 55 54 54 54 53 54 54 51 49 50 51 53 55 58 61 62 62 63 65 66 66 65 66 68 69 69 69 69 69 69 69 69 70 71 71 72 73 73 74 74 74 75 75 74 75 76 77 77 78 78 78 78 78 77 78 79 79 80 80 80 79 79 81 82 81 81 80 81 81 80 79 80 81 82 82 81 80 80 79 78 78 79
58 58 58 58 57 56 56 56 57 57 56 56 55 55 56 57 58 61 64 64 63 65 68 68 67 65 64 64 66 67 69 71 71 71 72 73 73 72 72 73 74 75 76 77 77 77 78 78 78 79 79 79 80 80 80 80 79 79 79 80 80 81 81 81 81 82 83 83 82 81 82 84 83 81 82 83 84 85 86 87 88 88 87 87 86
59 60 60 60 60 59 59 59 60 61 61 62 63 62 63 63 61 61 64 66 66 67 68 69 70 69 66 63 63 64 66 69 70 71 72 74 74 74 73 74 74 75 76 77 78 79 80 81 81 82 82 82 82 83 83 82 82 81 81 82 82 81 82 82 83 84 86 86 84 81 82 85 87 86 85 86 86 85 85 86 88 90 91 92 92
61 62 62 62 62 62 62 62 63 64 64 66 68 70 70 70 68 66 66 68 69 69 70 70 71 73 72 69 67 66 66 67 68 69 70 71 73 74 74 75 75 76 77 77 79 80 81 82 83 84 85 85 84 85 86 85 84 84 84 84 84 83 83 84 84 86 88 89 88 84 82 84 87 87 87 89 91 90 89 88 87 87 88 90 91
64 64 64 64 64 64 64 65 65 66 67 69 72 74 75 75 74 73 72 72 72 72 73 72 73 75 77 76 75 73 72 71 70 70 70 70 71 72 74 74 75 76 77 79 80 81 82 83 83 84 86 87 87 88 88 89 88 87 87 86 86 86 86 86 86 87 89 90 90 88 84 86 89 89 88 90 91 91 91 91 91 91 91 91 90
66 66 66 66 66 65 66 67 68 69 70 71 73 75 76 77 77 77 76 76 76 77 77 78 78 79 80 81 81 80 79 78 77 76 76 76 75 75 76 76 77 77 78 79 80 81 82 84 84 85 86 88 89 89 90 91 91 90 90 89 89 89 89 88 88 89 91 92 92 90 87 87 91 91 91 92 91 91 91 92 93 94 95 95 94
67 67 67 67 67 67 68 70 70 71 72 73 74 75 77 78 79 80 79 79 80 81 82 82 83 83 83 84 84 85 85 84 84 84 83 83 83 83 83 83 83 83 82 82 81 81 82 83 85 86 88 89 90 91 91 92 92 93 92 91 91 92 91 90 91 92 93 94 94 93 90 89 92 93 92 93 93 93 93 94 94 95 95 95 95
68 68 68 68 68 69 70 71 72 73 74 75 75 76 77 78 80 81 81 81 82 83 84 85 86 86 86 87 88 89 89 89 90 90 90 90 90 90 89 88 88 88 87 86 85 84 84 85 85 87 88 90 92 93 93 94 94 94 94 93 94 94 93 92 93 94 95 96 97 97 94 92 93 94 94 94 94 95 95 96 97 97 96 96 95
69 68 68 68 69 70 71 72 73 74 75 76 77 77 77 78 79 80 81 82 83 83 84 86 87 88 88 89 89 90 91 92 93 94 94 95 95 94 92 91 91 91 90 89 89 88 88 88 89 89 89 90 91 93 94 95 96 96 96 96 96 96 95 95 95 95 96 97 99 100 98 96 96 96 96 96 96 97 98 99 99 99 98 98 97
Wind_Direction
276 275 274 274 274 274 273 273 274 275 275 271 267 268 271 269 268 269 269 269 271 271 272 274 274 273 275 277 274 276 284 282 272 264 260 253 243 238 233 222 212 209 211 218 224 227 229 227 224 223 222 221 225 232 234 237 238 235 235 237 237 237 240 244 246 249 254 255 251 246 246 249 256 262 263 263 263 264 264 264 265 265 266 267 266
275 274 274 275 275 275 274 274 273 272 270 267 266 269 271 271 269 268 271 272 271 271 271 272 271 274 277 274 271 278 284 280 271 262 256 251 241 235 234 227 212 204 208 218 226 230 232 230 226 222 221 223 226 226 225 229 233 233 235 237 237 238 242 246 248 252 255 256 253 250 248 250 256 261 264 265 263 262 261 260 260 259 262 264 265
275 274 276 276 274 273 272 271 269 268 265 264 266 269 271 268 263 264 270 272 272 273 273 273 274 276 274 270 272 277 280 274 265 258 253 248 240 231 228 226 213 204 209 218 229 236 238 232 224 221 223 226 227 224 223 224 225 226 230 234 236 237 240 246 249 250 251 251 249 246 245 248 252 256 262 267 267 266 264 262 259 257 260 262 263
272 274 276 275 270 268 268 266 265 263 261 262 265 268 266 261 259 262 267 270 271 271 274 277 278 275 269 270 275 276 275 268 258 254 252 247 240 231 225 223 216 209 208 213 225 235 243 240 227 222 224 225 225 223 221 219 219 220 223 228 232 235 238 243 244 241 241 241 241 241 242 246 251 255 260 264 267 268 268 265 259 257 259 260 259
269 268 267 266 264 263 262 262 262 260 259 261 265 266 260 258 261 261 263 264 265 267 271 274 273 270 270 274 277 274 269 261 252 249 250 246 239 233 226 221 218 215 210 208 217 229 239 247 238 228 226 225 226 227 226 223 221 221 224 226 228 231 236 241 239 235 235 237 238 242 245 248 252 256 259 261 262 263 267 267 260 254 257 259 257
267 263 258 258 261 262 260 259 260 259 260 261 262 262 258 259 260 260 260 257 258 263 264 266 267 269 271 276 276 269 259 252 247 244 245 244 238 233 226 217 217 218 213 207 211 224 233 247 250 239 231 228 229 233 234 233 231 231 231 230 230 229 231 234 236 236 237 240 241 243 246 248 252 256 259 260 260 261 263 267 265 256 254 258 257
262 261 257 258 262 264 260 260 261 261 262 261 260 260 258 258 257 258 259 254 252 257 259 261 264 268 271 275 273 258 247 244 242 240 240 241 237 232 223 215 215 217 215 208 208 220 231 248 256 250 238 231 229 231 235 239 240 242 241 239 238 236 235 234 235 238 239 241 243 244 247 251 254 255 257 258 259 261 261 263 265 258 253 255 256
258 256 255 256 259 260 259 261 263 261 261 260 259 260 258 258 256 254 255 252 247 250 256 260 262 267 272 275 268 246 237 239 237 236 236 237 236 230 219 213 214 217 216 209 206 217 231 246 254 255 247 234 228 228 233 240 244 248 249 249 248 246 243 240 239 241 242 245 247 250 252 253 254 253 251 255 258 260 261 261 262 258 252 253 255
255 253 251 251 254 256 256 259 259 258 260 260 257 256 254 255 253 251 253 251 247 248 253 258 261 266 270 271 259 240 234 237 236 234 233 232 233 227 217 213 215 217 216 209 209 220 232 243 249 253 252 238 228 225 230 239 245 249 251 251 251 250 249 247 246 245 247 250 253 255 255 254 254 250 247 250 256 259 259 259 258 254 251 253 255
252 252 249 248 250 252 253 253 253 255 255 257 258 254 250 249 249 251 254 252 249 249 250 253 259 263 265 260 246 236 234 236 236 235 233 231 229 225 218 216 216 217 215 211 214 222 232 241 247 250 249 239 231 227 228 235 242 247 250 252 253 251 250 249 250 250 251 253 256 258 257 255 253 250 245 248 254 258 257 256 254 252 251 254 257
250 251 250 249 250 251 252 250 251 252 249 253 259 256 250 247 246 250 253 253 251 248 246 249 254 257 259 249 236 231 231 234 236 234 234 232 227 224 221 219 220 221 219 217 216 219 229 238 243 246 243 239 238 237 236 239 244 247 252 256 258 258 254 250 251 253 255 256 257 259 259 257 254 250 246 247 251 254 255 255 254 254 256 259 261
252 251 250 251 251 251 251 251 253 253 251 253 256 251 246 244 245 247 246 248 247 242 243 248 251 253 252 243 235 231 230 232 233 233 234 232 227 224 223 222 224 225 227 228 220 215 223 234 241 244 242 241 244 246 246 245 248 252 256 258 257 256 253 253 253 254 255 256 255 256 257 256 255 253 250 249 251 253 256 258 258 259 261 262 263
254 252 251 251 252 251 251 252 253 254 253 254 251 243 242 242 243 243 239 241 242 237 240 247 249 250 246 240 237 234 233 234 234 234 234 233 229 225 225 226 228 229 232 235 226 216 218 229 238 240 239 240 243 248 250 249 249 255 261 262 257 248 242 246 252 253 254 253 251 252 253 254 255 258 257 253 252 253 254 256 258 259 260 260 258
254 253 252 251 251 250 250 250 251 252 251 251 248 244 246 245 240 236 232 233 237 235 239 244 247 248 242 238 238 235 234 236 237 236 235 235 234 229 227 228 231 232 232 234 228 220 220 224 228 232 233 237 242 247 252 253 252 255 263 266 258 246 236 235 243 247 247 247 247 248 250 255 260 263 262 258 252 249 248 249 250 251 253 255 254
255 253 252 250 250 250 250 249 248 249 249 249 248 247 248 246 239 234 231 232 234 234 236 242 246 245 239 236 238 236 235 236 237 237 237 236 238 237 232 228 228 231 232 231 228 224 224 225 226 225 227 232 239 245 251 254 254 255 263 264 254 244 235 230 235 242 243 243 245 248 254 262 264 263 261 258 253 248 246 246 247 248 250 252 253
259 257 254 253 251 250 250 250 249 248 248 248 248 248 248 246 241 238 238 239 240 238 237 241 243 241 237 235 237 237 236 236 236 238 239 237 237 239 239 234 229 228 231 231 228 226 227 229 230 227 225 228 233 241 248 252 253 256 259 257 248 244 236 229 230 237 242 246 250 256 263 265 262 260 259 259 256 251 248 246 247 249 251 253 255
262 260 258 256 254 252 251 251 250 249 249 248 248 248 247 246 244 242 241 242 242 238 236 237 237 235 234 233 235 237 236 235 237 239 242 241 237 236 238 238 234 231 232 234 233 231 231 233 235 233 230 228 229 234 240 245 250 254 251 245 242 241 237 232 231 234 240 247 255 260 263 260 256 257 258 258 258 255 252 250 250 251 252 254 256
264 262 260 258 257 254 252 251 251 251 250 249 249 248 247 246 246 244 242 240 238 235 232 232 234 235 233 230 231 234 235 236 238 239 241 242 241 237 235 236 236 234 234 236 236 236 236 236 238 238 236 234 233 232 236 241 246 246 238 233 235 234 234 233 232 234 239 244 250 254 256 257 256 256 256 257 258 257 256 255 255 254 255 255 256
266 263 261 259 258 256 254 252 251 251 251 250 249 248 247 246 245 244 243 239 236 234 232 231 235 236 233 229 228 229 232 235 238 239 239 240 242 242 239 236 236 236 235 235 236 237 238 238 239 239 239 240 239 236 237 241 241 235 228 224 225 225 225 225 226 229 232 235 239 245 253 260 261 260 258 258 257 258 258 259 258 257 256 256 256
268 265 263 261 259 257 256 253 251 251 251 251 250 249 248 247 246 244 243 240 238 236 234 232 234 234 231 229 226 226 230 234 238 241 241 240 242 244 243 240 238 237 236 236 235 236 237 238 239 239 239 241 243 239 238 239 236 230 227 223 219 218 219 221 226 228 226 231 240 246 252 261 264 266 266 264 261 260 259 259 260 259 259 258 258
272 268 264 261 259 257 255 254 252 251 250 251 251 251 250 249 248 246 244 242 240 239 236 233 233 231 230 228 227 226 229 232 237 242 244 243 243 244 246 244 241 240 239 237 237 237 237 237 238 238 238 239 240 237 234 235 232 228 227 224 218 216 217 220 227 229 230 236 243 245 250 257 259 261 264 266 266 263 260 258 258 259 259 259 260
274 271 266 262 258 256 254 253 252 251 251 251 251 252 252 251 250 249 247 245 243 241 238 235 233 232 230 228 227 227 228 229 232 237 243 244 244 243 245 245 244 242 241 240 239 239 239 239 238 239 238 238 237 234 230 229 228 226 225 224 221 219 219 221 226 229 231 234 236 236 239 243 245 248 254 261 266 267 265 262 260 258 258 258 258
273 271 267 263 259 256 254 253 252 251 251 251 252 252 252 251 250 250 249 248 246 243 241 239 236 235 235 232 229 228 229 228 228 231 238 242 243 242 242 244 244 243 243 241 240 239 239 239 238 238 238 237 237 235 231 229 228 227 227 226 226 225 224 224 228 232 234 235 235 234 234 234 236 239 242 249 259 266 268 266 264 262 261 260 259
271 269 266 263 260 257 256 254 252 251 250 250 251 251 252 251 250 249 249 249 248 246 243 242 240 240 240 238 234 232 231 230 229 229 232 236 239 241 242 243 243 243 243 243 243 242 239 238 238 237 237 237 238 237 234 232 231 231 231 231 231 232 232 232 234 238 241 243 245 244 242 239 238 239 239 240 245 255 263 266 265 264 264 263 262
266 265 263 260 258 256 255 255 254 253 251 250 249 249 249 250 251 250 249 249 250 249 247 245 243 243 244 243 240 237 235 234 232 231 231 233 235 237 241 244 244 243 243 243 244 245 243 240 238 238 238 239 239 238 236 234 233 234 235 237 237 238 239 241 243 246 248 251 253 254 253 249 246 244 243 243 243 244 251 257 260 261 263 265 265
260 260 259 258 256 254 253 253 254 254 253 252 250 248 247 248 250 250 250 249 250 251 250 249 247 246 246 246 244 242 240 239 237 235 234 234 232 232 236 242 245 245 244 242 242 244 246 245 243 242 241 241 241 241 238 235 235 235 237 239 241 242 244 246 248 250 252 253 254 257 257 255 254 252 249 250 252 253 253 255 257 258 260 263 265
260 257 256 255 254 253 252 252 252 253 253 253 252 250 249 247 248 249 250 250 250 250 251 250 249 248 248 248 247 245 244 243 241 239 239 237 234 231 232 236 241 243 244 243 241 242 244 245 245 245 245 245 244 243 242 240 238 237 238 239 240 242 244 246 248 250 252 253 254 256 257 257 256 256 255 255 256 259 261 260 258 258 258 260 261
261 259 257 255 254 253 252 251 250 251 252 251 251 250 250 249 248 248 248 249 250 251 251 250 250 250 249 249 249 248 247 246 245 243 242 241 238 233 233 235 236 238 240 241 241 241 240 242 244 245 246 246 246 246 245 244 242 241 240 240 240 241 242 243 245 247 249 252 252 253 256 258 257 255 254 255 255 257 260 261 259 258 258 258 258
260 260 259 257 255 254 252 251 250 250 250 250 250 249 249 249 248 248 248 248 249 250 251 251 251 250 250 250 250 250 250 249 248 247 246 245 242 237 235 237 237 237 237 239 241 241 239 239 240 242 244 245 246 246 245 245 244 244 243 243 242 242 242 243 244 245 247 249 250 251 254 257 257 255 254 253 254 255 257 259 260 258 257 258 258
261 260 259 258 257 256 254 252 251 250 250 249 249 249 249 249 248 248 248 248 248 249 250 251 251 251 250 250 250 250 250 250 249 249 248 247 246 243 240 240 241 240 238 237 239 242 241 239 238 239 240 242 244 245 244 244 244 245 245 244 244 245 245 245 246 246 248 248 248 250 253 255 256 256 256 254 254 255 256 258 260 259 258 257 258
263 262 260 259 258 257 256 255 254 253 252 251 250 250 249 249 249 249 249 248 248 249 249 250 251 251 250 250 251 251 250 250 249 249 248 247 247 246 244 243 243 244 244 241 239 241 242 241 240 239 238 239 241 243 243 243 244 245 245 246 246 247 247 247 248 248 248 248 248 248 250 253 254 255 257 256 255 256 257 258 260 262 261 259 259
266 265 264 262 261 259 258 258 257 256 255 254 253 252 251 250 249 249 249 249 249 249 249 249 249 250 250 250 250 251 251 250 250 249 248 248 247 247 247 246 245 246 247 247 245 243 241 241 242 242 241 240 240 241 242 243 243 244 245 247 248 249 249 249 249 249 248 248 248 249 249 250 250 252 255 257 257 256 257 258 260 262 262 261 260
266 266 265 265 264 263 262 261 260 259 258 257 256 255 254 252 251 250 249 249 249 249 249 249 249 249 249 250 250 251 251 251 251 251 251 250 248 247 247 247 246 246 247 248 249 248 246 243 241 242 243 243 243 242 242 242 243 244 245 246 247 249 249 250 249 250 249 247 246 248 249 250 250 250 253 255 256 256 257 259 260 261 261 261 261
266 265 264 264 263 263 262 262 260 259 258 258 258 257 256 255 254 252 251 250 249 248 248 248 249 249 249 249 250 250 250 250 251 251 251 252 251 250 249 248 247 247 247 247 248 250 250 249 246 243 243 243 244 245 244 243 243 244 245 245 246 247 248 249 248 248 247 246 245 245 247 249 250 250 251 253 254 255 257 259 260 260 260 260 261
269 265 262 261 260 260 260 259 258 256 255 256 256 256 256 255 254 254 253 251 250 249 248 248 248 249 249 250 249 250 250 250 250 250 250 251 252 252 251 250 249 249 248 248 248 249 250 251 251 250 247 245 245 245 245 246 246 246 246 246 246 247 247 248 248 247 246 246 246 246 248 249 251 251 252 253 255 257 259 260 260 260 259 260 262
270 265 260 259 258 257 257 257 257 257 256 255 254 254 253 253 253 253 253 252 251 250 249 248 248 248 249 249 250 249 250 250 250 250 250 250 251 251 252 251 251 250 250 250 249 249 249 250 252 252 252 250 249 247 246 246 247 248 248 249 249 249 248 249 249 249 249 248 248 248 249 251 252 254 255 256 258 259 261 262 262 262 261 261 262
268 264 260 258 256 255 255 255 256 258 258 257 255 253 252 251 251 252 252 252 252 252 251 250 250 249 249 249 250 250 249 250 250 251 251 251 251 251 251 252 252 251 251 251 251 250 250 250 250 252 253 253 253 252 250 248 247 247 248 249 250 251 251 251 251 251 251 251 251 251 252 253 254 255 256 258 259 260 261 262 263 263 263 263 263
266 263 261 259 256 254 254 254 255 256 258 258 257 256 255 253 251 251 252 252 252 252 252 252 251 251 250 249 249 250 250 249 250 250 251 251 251 251 251 251 251 252 252 252 252 252 251 251 251 251 251 253 254 254 254 253 251 249 247 248 249 249 250 251 251 252 253 253 253 254 255 256 256 256 257 257 258 259 259 260 260 260 260 261 261
265 263 261 260 258 256 255 255 256 256 256 257 258 259 260 259 256 255 254 254 253 252 252 252 252 252 252 250 250 250 250 250 250 250 250 250 251 251 251 252 252 252 252 252 252 252 253 253 253 252 252 252 253 254 254 254 254 253 251 250 249 249 249 249 250 250 251 252 253 254 255 256 257 257 258 258 259 259 259 260 260 260 260 260 260
264 263 262 262 261 259 257 256 257 256 255 255 257 258 261 262 261 259 258 257 255 254 253 253 253 252 252 252 251 251 251 251 251 251 251 251 251 250 251 251 252 252 252 252 252 252 252 253 253 254 253 253 252 253 253 254 254 254 254 253 252 251 250 251 251 251 250 250 251 252 253 254 255 256 257 258 259 260 260 261 261 261 261 261 260
263 263 262 262 262 261 259 256 254 255 256 257 258 257 258 261 263 263 262 260 257 255 255 255 255 254 252 252 252 252 252 252 252 252 252 252 252 252 251 251 252 252 252 252 252 252 252 253 253 253 254 254 254 253 253 253 253 254 254 254 253 253 252 252 252 252 252 252 251 251 251 252 253 254 255 256 257 258 259 259 260 260 261 261 261
261 262 261 260 260 260 259 256 252 251 254 257 258 258 257 258 261 263 264 263 262 260 258 257 256 255 254 253 253 253 253 253 253 253 253 253 253 253 253 253 253 253 253 253 253 253 253 253 253 253 253 254 254 254 254 254 254 254 255 254 254 254 254 254 253 253 253 253 253 254 253 253 252 253 253 253 253 254 254 255 255 256 257 257 258
260 260 260 259 258 258 258 257 253 250 250 253 255 256 257 257 258 259 261 262 264 265 264 261 259 256 255 255 255 254 254 254 254 254 254 253 254 253 253 253 253 253 254 253 253 253 253 253 253 253 254 254 254 254 254 254 254 254 255 255 255 255 256 256 256 255 254 253 253 254 255 255 254 254 254 254 254 254 254 253 253 254 254 255 256
258 258 258 257 257 256 255 255 254 252 251 251 252 253 254 255 256 257 257 258 260 263 265 265 263 260 257 256 256 256 255 255 254 254 254 254 254 255 254 254 254 254 254 254 254 254 254 253 253 254 254 254 254 254 254 254 254 254 254 255 255 256 256 256 257 257 257 256 254 253 255 256 255 255 255 256 256 256 256 256 256 256 256 257 258
258 258 257 256 256 255 254 253 253 254 253 253 253 252 252 253 254 255 255 255 256 258 261 263 264 264 261 258 258 258 258 257 256 255 255 255 255 255 255 255 255 255 255 255 256 255 255 254 254 254 254 254 254 255 255 254 254 254 254 254 255 255 255 256 256 257 258 257 256 254 254 256 256 255 256 257 257 257 257 257 258 258 258 258 258
259 259 259 258 257 256 254 253 253 253 253 254 254 253 253 253 255 256 255 254 253 254 257 259 261 264 265 264 262 262 261 260 259 258 257 257 257 256 256 256 256 257 257 257 257 257 257 256 256 255 256 255 255 255 255 255 254 254 254 254 254 255 255 255 256 257 258 258 257 256 255 256 256 255 255 256 256 257 257 258 258 259 259 259 259
261 260 259 259 259 258 257 255 254 253 253 253 254 255 255 255 257 258 257 256 254 253 254 257 259 262 264 265 266 265 265 264 262 261 261 260 259 258 258 257 257 258 258 258 258 258 258 257 257 257 257 257 256 256 256 256 255 255 254 254 254 255 254 255 255 256 257 258 258 257 256 257 258 257 256 256 256 256 257 257 258 258 258 259 259
262 261 261 260 259 259 259 258 257 255 253 252 252 254 255 256 258 258 258 258 257 256 256 257 258 261 262 263 264 264 265 265 264 264 263 262 262 262 261 261 260 260 259 258 258 257 258 258 257 257 257 257 257 257 257 257 256 256 255 255 255 255 255 255 255 255 256 257 258 257 256 257 258 259 258 258 258 258 258 257 257 257 258 258 258
261 261 261 261 260 259 259 258 258 257 256 255 254 254 255 256 257 257 257 257 257 258 258 258 259 259 260 261 262 262 263 263 264 264 263 263 263 264 265 264 263 263 262 261 260 258 258 257 257 257 257 257 257 257 257 257 257 257 257 256 256 255 255 255 255 256 256 257 257 257 256 256 257 258 259 260 260 260 260 259 259 258 258 258 258
261 260 260 260 259 259 258 258 257 257 257 257 256 255 255 256 256 257 257 257 257 257 257 258 258 259 259 259 259 260 261 261 262 262 262 262 263 264 265 265 265 264 264 263 262 261 260 259 258 258 258 257 257 257 257 257 257 257 257 257 257 257 256 256 256 256 257 257 258 257 257 256 256 257 258 259 260 260 260 260 260 260 260 260 259
263 262 261 260 259 258 258 257 257 257 257 257 257 256 256 256 257 257 257 258 258 258 258 258 258 259 259 259 259 259 260 260 261 261 262 262 263 264 264 264 264 264 264 264 264 263 262 261 260 260 259 259 258 258 258 258 258 258 257 257 257 257 257 257 257 257 257 258 258 258 258 257 257 257 257 257 259 260 260 260 260 261 261 260 260
Height
10711 10711 10712 10714 10716 10717 10718 10720 10720 10721 10722 10722 10722 10722 10720 10718 10717 10714 10713 10714 10715 10715 10716 10718 10720 10722 10723 10723 10724 10725 10725 10725 10723 10720 10719 10722 10724 10724 10724 10725 10727 10729 10732 10735 10736 10738 10739 10740 10742 10744 10746 10748 10750 10752 10754 10756 10757 10759 10761 10763 10764 10766 10767 10768 10769 10769 10770 10771 10773 10774 10775 10776 10776 10777 10778 10778 10779 10779 10780 10780 10780 10780 10780 10780 10780
10706 10707 10707 10709 10710 10710 10712 10713 10714 10714 10714 10715 10716 10717 10716 10716 10715 10712 10709 10709 10710 10710 10711 10714 10716 10717 10718 10719 10720 10720 10721 10721 10720 10717 10716 10718 10721 10721 10721 10722 10723 10725 10728 10731 10733 10735 10736 10737 10739 10741 10743 10745 10747 10748 10750 10752 10753 10755 10757 10759 10761 10762 10763 10764 10765 10766 10767 10768 10770 10771 10772 10773 10774 10774 10775 10775 10776 10776 10777 10777 10778 10778 10778 10778 10778
10702 10702 10702 10702 10703 10704 10704 10706 10707 10707 10707 10709 10711 10713 10713 10712 10711 10709 10706 10706 10706 10706 10706 10708 10711 10714 10714 10714 10715 10716 10716 10717 10717 10714 10713 10715 10717 10718 10718 10719 10720 10722 10724 10727 10730 10732 10733 10734 10736 10738 10740 10742 10744 10746 10747 10748 10750 10752 10753 10755 10756 10758 10759 10761 10762 10763 10764 10765 10766 10767 10769 10770 10771 10771 10772 10773 10773 10773 10774 10774 10775 10776 10776 10776 10776
10698 10698 10696 10695 10696 10696 10697 10698 10699 10700 10701 10703 10705 10707 10708 10706 10705 10705 10703 10703 10704 10704 10703 10704 10707 10709 10710 10710 10710 10711 10711 10712 10713 10711 10710 10711 10713 10714 10715 10716 10717 10718 10720 10722 10726 10728 10730 10731 10733 10734 10736 10739 10741 10742 10744 10745 10747 10748 10750 10751 10753 10754 10756 10757 10758 10760 10761 10762 10763 10764 10765 10766 10768 10769 10769 10770 10770 10771 10771 10771 10772 10773 10773 10773 10773
10692 10693 10690 10686 10686 10686 10688 10690 10690 10693 10695 10696 10698 10700 10701 10701 10702 10701 10699 10700 10701 10701 10700 10701 10702 10703 10705 10706 10706 10706 10706 10707 10709 10708 10706 10707 10709 10711 10712 10714 10715 10716 10717 10718 10720 10724 10727 10729 10730 10732 10733 10735 10737 10739 10741 10742 10743 10745 10746 10748 10749 10751 10753 10754 10755 10756 10758 10759 10760 10761 10762 10764 10764 10765 10766 10767 10767 10768 10768 10768 10768 10769 10770 10770 10770
10683 10684 10681 10676 10676 10679 10681 10682 10683 10685 10687 10688 10690 10693 10695 10696 10697 10697 10696 10697 10698 10697 10697 10697 10697 10698 10699 10701 10702 10701 10702 10703 10704 10704 10702 10703 10705 10707 10708 10710 10712 10714 10714 10714 10716 10720 10723 10726 10727 10729 10730 10732 10734 10736 10738 10740 10741 10742 10743 10745 10746 10747 10749 10750 10752 10754 10755 10756 10757 10758 10759 10760 10761 10762 10763 10763 10764 10765 10765 10765 10765 10766 10767 10767 10767
10675 10675 10673 10669 10670 10674 10677 10677 10677 10679 10679 10681 10683 10686 10689 10689 10690 10691 10692 10693 10693 10693 10692 10693 10693 10693 10694 10696 10698 10697 10698 10698 10699 10699 10698 10698 10701 10703 10705 10707 10709 10711 10712 10712 10713 10716 10720 10722 10724 10725 10726 10728 10730 10732 10734 10736 10738 10739 10740 10741 10743 10744 10745 10747 10748 10750 10752 10753 10754 10755 10756 10757 10758 10758 10759 10760 10761 10761 10762 10763 10763 10763 10763 10764 10764
10669 10669 10667 10665 10666 10669 10672 10671 10671 10672 10673 10674 10677 10679 10681 10682 10683 10685 10687 10688 10688 10688 10688 10689 10689 10689 10689 10692 10694 10694 10694 10694 10695 10695 10695 10695 10697 10699 10701 10703 10706 10707 10709 10709 10710 10713 10716 10719 10720 10721 10723 10724 10726 10728 10731 10733 10734 10736 10737 10738 10739 10740 10742 10743 10745 10746 10748 10749 10750 10751 10752 10753 10754 10754 10755 10756 10757 10758 10759 10759 10760 10760 10761 10761 10761
10661 10663 10662 10661 10662 10664 10666 10667 10665 10665 10667 10669 10671 10673 10674 10675 10677 10679 10682 10683 10683 10684 10685 10685 10685 10685 10686 10688 10690 10691 10691 10690 10691 10692 10692 10692 10694 10696 10698 10700 10703 10704 10706 10706 10707 10710 10713 10715 10716 10717 10719 10721 10723 10725 10727 10729 10731 10732 10733 10734 10735 10736 10738 10739 10741 10742 10744 10745 10746 10747 10748 10749 10750 10751 10752 10753 10753 10754 10755 10756 10757 10757 10758 10758 10759
10654 10657 10658 10658 10658 10658 10660 10662 10662 10662 10663 10664 10666 10667 10668 10670 10672 10674 10677 10677 10677 10679 10680 10680 10680 10681 10683 10684 10686 10686 10687 10687 10688 10689 10689 10690 10691 10692 10695 10697 10699 10701 10702 10703 10704 10706 10709 10711 10712 10714 10715 10718 10720 10721 10723 10725 10727 10728 10729 10730 10731 10732 10734 10735 10737 10738 10739 10741 10742 10743 10744 10745 10746 10747 10748 10749 10750 10751 10752 10753 10754 10754 10755 10755 10756
10649 10651 10653 10654 10653 10653 10654 10656 10658 10658 10659 10660 10661 10661 10662 10665 10667 10669 10670 10670 10671 10673 10675 10676 10677 10678 10680 10681 10681 10682 10683 10684 10685 10685 10686 10687 10688 10689 10691 10694 10696 10697 10698 10699 10700 10702 10705 10708 10709 10711 10712 10714 10716 10718 10720 10722 10723 10725 10726 10727 10728 10728 10730 10731 10732 10733 10735 10736 10738 10739 10740 10741 10742 10743 10744 10745 10746 10747 10748 10749 10750 10751 10751 10752 10752
10644 10645 10647 10648 10647 10647 10649 10650 10651 10652 10653 10655 10657 10657 10657 10659 10662 10664 10664 10664 10665 10668 10670 10672 10673 10675 10676 10676 10677 10678 10678 10679 10680 10681 10682 10683 10685 10686 10688 10690 10692 10694 10695 10696 10697 10698 10701 10704 10706 10707 10709 10711 10712 10714 10716 10717 10719 10721 10722 10723 10724 10726 10727 10727 10728 10729 10731 10732 10733 10735 10736 10736 10737 10738 10739 10741 10742 10743 10744 10745 10746 10747 10747 10748 10749
10636 10638 10640 10641 10641 10641 10643 10644 10645 10646 10646 10649 10652 10652 10652 10655 10657 10658 10660 10661 10661 10663 10666 10667 10669 10671 10672 10671 10672 10674 10675 10675 10676 10678 10679 10680 10681 10683 10684 10686 10688 10689 10691 10693 10694 10695 10696 10698 10701 10703 10705 10707 10708 10709 10711 10713 10715 10716 10717 10718 10719 10721 10723 10724 10724 10725 10727 10728 10729 10731 10731 10732 10733 10734 10735 10736 10737 10739 10740 10741 10742 10742 10743 10744 10745
10630 10631 10633 10635 10635 10635 10637 10638 10639 10639 10640 10641 10644 10646 10648 10651 10653 10653 10655 10657 10657 10659 10661 10663 10665 10666 10667 10667 10668 10670 10671 10671 10673 10674 10676 10677 10677 10678 10680 10681 10683 10685 10687 10689 10691 10692 10692 10693 10696 10698 10701 10702 10704 10705 10707 10708 10710 10711 10712 10713 10714 10716 10718 10720 10721 10722 10723 10725 10726 10727 10728 10728 10729 10729 10730 10731 10732 10734 10735 10736 10737 10738 10739 10740 10741
10624 10625 10627 10628 10629 10629 10630 10632 10633 10633 10633 10635 10637 10639 10642 10645 10647 10648 10650 10652 10653 10654 10657 10659 10660 10661 10662 10663 10664 10665 10666 10667 10669 10670 10672 10673 10675 10675 10676 10678 10679 10680 10682 10684 10687 10689 10689 10690 10692 10694 10696 10698 10700 10702 10703 10704 10706 10707 10708 10708 10709 10710 10712 10715 10717 10718 10719 10721 10722 10723 10724 10724 10724 10725 10726 10726 10727 10729 10731 10732 10733 10734 10735 10736 10737
10619 10620 10621 10621 10623 10623 10624 10625 10627 10627 10627 10629 10631 10633 10635 10637 10640 10643 10645 10647 10648 10650 10652 10654 10656 10657 10658 10659 10660 10661 10662 10663 10665 10666 10667 10669 10671 10672 10673 10675 10676 10677 10678 10680 10682 10685 10687 10688 10689 10691 10692 10694 10696 10698 10699 10701 10702 10703 10704 10704 10704 10705 10707 10710 10712 10714 10716 10717 10718 10720 10721 10720 10720 10720 10721 10722 10723 10724 10726 10727 10728 10729 10730 10732 10732
10614 10615 10615 10615 10617 10618 10619 10620 10620 10621 10622 10624 10625 10627 10629 10631 10633 10636 10639 10641 10643 10645 10648 10650 10651 10652 10654 10655 10656 10657 10659 10660 10661 10662 10663 10665 10667 10668 10670 10672 10674 10675 10676 10677 10679 10681 10683 10684 10685 10688 10689 10690 10692 10693 10695 10697 10698 10699 10699 10699 10700 10701 10703 10705 10708 10710 10712 10713 10715 10716 10716 10716 10716 10716 10717 10718 10719 10720 10721 10722 10724 10725 10726 10727 10728
10610 10610 10611 10611 10611 10613 10614 10615 10615 10616 10617 10619 10621 10622 10624 10625 10627 10630 10632 10635 10638 10640 10642 10644 10646 10648 10650 10651 10652 10654 10655 10656 10658 10659 10660 10661 10662 10664 10666 10668 10670 10672 10673 10675 10676 10677 10679 10680 10682 10684 10685 10686 10687 10689 10691 10692 10693 10694 10695 10696 10696 10698 10699 10701 10703 10706 10708 10710 10711 10712 10712 10712 10712 10712 10712 10714 10715 10715 10717 10718 10719 10720 10721 10722 10723
10608 10607 10607 10607 10608 10608 10610 10611 10611 10612 10613 10614 10616 10618 10619 10620 10622 10624 10627 10629 10632 10634 10636 10639 10641 10643 10645 10647 10648 10650 10651 10653 10654 10655 10656 10657 10659 10660 10662 10664 10665 10667 10669 10670 10672 10673 10675 10677 10678 10680 10681 10682 10684 10686 10687 10688 10689 10691 10692 10692 10693 10694 10696 10697 10699 10701 10704 10706 10707 10708 10708 10708 10708 10708 10709 10710 10710 10711 10712 10713 10714 10715 10716 10717 10718
10605 10605 10605 10605 10605 10605 10606 10607 10608 10608 10609 10610 10611 10613 10614 10616 10617 10619 10621 10624 10626 10628 10631 10634 10636 10638 10640 10642 10644 10646 10647 10649 10650 10650 10652 10653 10655 10656 10658 10659 10661 10662 10664 10666 10668 10670 10672 10673 10675 10676 10677 10678 10681 10683 10684 10684 10685 10687 10688 10689 10690 10691 10693 10695 10696 10698 10700 10702 10703 10703 10704 10704 10705 10705 10705 10706 10706 10707 10708 10709 10710 10711 10712 10713 10714
10603 10603 10602 10602 10602 10602 10603 10603 10604 10605 10605 10606 10607 10608 10610 10611 10613 10614 10616 10618 10620 10622 10625 10628 10631 10632 10635 10637 10639 10640 10642 10644 10646 10647 10648 10649 10650 10652 10654 10656 10657 10657 10659 10661 10664 10666 10668 10669 10670 10672 10673 10674 10676 10678 10679 10680 10681 10682 10683 10684 10686 10687 10689 10691 10692 10694 10696 10697 10698 10699 10700 10701 10702 10702 10702 10702 10702 10703 10704 10704 10705 10706 10707 10708 10709
10601 10600 10600 10600 10599 10599 10599 10600 10600 10601 10602 10603 10603 10604 10606 10607 10608 10610 10611 10613 10615 10617 10619 10622 10625 10627 10629 10632 10633 10635 10637 10639 10642 10643 10644 10645 10646 10648 10649 10651 10652 10653 10654 10657 10659 10661 10663 10665 10666 10667 10669 10670 10672 10673 10674 10675 10676 10678 10679 10680 10682 10682 10684 10685 10687 10689 10691 10692 10692 10694 10695 10696 10697 10698 10698 10699 10699 10700 10700 10700 10701 10702 10703 10704 10705
10598 10598 10598 10597 10597 10596 10596 10597 10597 10598 10598 10599 10600 10601 10602 10603 10604 10605 10607 10608 10610 10611 10614 10616 10619 10621 10623 10626 10628 10630 10632 10634 10636 10638 10639 10641 10642 10643 10644 10646 10648 10649 10650 10652 10655 10656 10658 10660 10662 10663 10665 10667 10668 10669 10671 10672 10672 10673 10674 10676 10678 10679 10680 10681 10682 10684 10686 10687 10687 10688 10689 10690 10691 10692 10694 10695 10696 10696 10696 10696 10696 10697 10698 10698 10699
10595 10595 10595 10594 10594 10594 10594 10594 10594 10594 10595 10595 10596 10597 10598 10599 10600 10601 10603 10604 10605 10607 10609 10611 10613 10615 10617 10620 10623 10625 10627 10628 10631 10633 10635 10636 10638 10639 10639 10641 10643 10645 10646 10648 10649 10650 10653 10655 10657 10658 10660 10662 10664 10665 10667 10667 10668 10668 10670 10672 10674 10675 10676 10678 10679 10680 10682 10683 10684 10684 10685 10685 10687 10688 10689 10690 10691 10692 10692 10692 10692 10693 10693 10693 10694
10592 10591 10591 10591 10591 10591 10591 10591 10591 10591 10592 10592 10593 10594 10594 10595 10596 10597 10598 10600 10601 10602 10604 10606 10608 10610 10611 10614 10617 10619 10621 10623 10625 10627 10629 10631 10633 10634 10635 10636 10637 10639 10641 10644 10645 10645 10647 10649 10652 10654 10656 10657 10658 10659 10660 10661 10662 10663 10666 10669 10671 10672 10673 10674 10675 10677 10678 10679 10680 10681 10681 10682 10682 10684 10685 10685 10685 10686 10687 10687 10688 10689 10689 10689 10689
10588 10588 10588 10588 10587 10588 10588 10588 10588 10588 10589 10589 10590 10590 10591 10592 10592 10593 10594 10595 10596 10598 10599 10601 10603 10604 10606 10608 10611 10613 10615 10617 10619 10621 10623 10626 10628 10629 10630 10631 10632 10633 10635 10639 10640 10640 10642 10644 10647 10648 10649 10650 10652 10653 10654 10656 10658 10660 10662 10665 10666 10668 10668 10669 10671 10672 10673 10674 10675 10676 10677 10677 10678 10679 10680 10681 10681 10682 10683 10683 10683 10684 10685 10685 10686
10583 10584 10584 10584 10584 10584 10584 10585 10585 10585 10585 10585 10586 10586 10587 10588 10588 10589 10590 10591 10592 10593 10594 10596 10597 10599 10601 10603 10605 10607 10609 10611 10613 10615 10617 10620 10622 10623 10625 10626 10627 10628 10630 10632 10634 10635 10637 10639 10640 10641 10642 10644 10646 10648 10650 10652 10654 10656 10657 10658 10660 10662 10663 10664 10666 10667 10668 10669 10669 10671 10672 10673 10674 10675 10675 10677 10678 10678 10678 10679 10679 10680 10681 10681 10682
10578 10579 10580 10580 10580 10581 10581 10581 10581 10581 10581 10581 10581 10582 10582 10583 10584 10585 10586 10586 10587 10588 10590 10591 10592 10594 10595 10597 10599 10601 10603 10605 10607 10609 10611 10613 10615 10617 10619 10620 10622 10623 10624 10626 10628 10629 10631 10633 10633 10635 10636 10638 10640 10642 10644 10647 10648 10650 10651 10652 10654 10655 10657 10658 10659 10660 10661 10662 10663 10665 10666 10667 10669 10670 10670 10671 10672 10673 10673 10673 10675 10675 10676 10677 10677
10572 10573 10574 10575 10576 10576 10577 10577 10577 10577 10577 10577 10577 10577 10578 10578 10579 10580 10581 10581 10582 10583 10585 10586 10587 10589 10590 10591 10593 10595 10597 10598 10600 10602 10604 10606 10608 10611 10612 10613 10616 10618 10620 10620 10621 10623 10626 10627 10627 10629 10630 10631 10633 10635 10638 10640 10642 10643 10645 10646 10647 10649 10650 10652 10653 10654 10655 10656 10657 10659 10660 10661 10662 10664 10665 10666 10667 10667 10667 10668 10669 10670 10671 10672 10672
10566 10566 10567 10569 10570 10571 10571 10572 10572 10572 10572 10572 10572 10572 10573 10573 10574 10575 10575 10576 10577 10578 10579 10580 10582 10583 10584 10585 10587 10589 10590 10592 10593 10595 10597 10599 10601 10603 10605 10606 10608 10611 10614 10615 10615 10617 10620 10621 10621 10622 10623 10624 10626 10628 10631 10633 10634 10636 10638 10639 10641 10642 10643 10645 10646 10648 10649 10650 10651 10652 10653 10655 10656 10657 10658 10659 10661 10662 10662 10662 10662 10664 10665 10666 10667
10559 10560 10561 10562 10563 10564 10565 10566 10566 10566 10566 10566 10567 10567 10567 10568 10569 10569 10570 10571 10572 10573 10574 10575 10576 10577 10578 10579 10580 10582 10583 10585 10586 10587 10589 10591 10593 10595 10598 10600 10601 10604 10606 10609 10610 10611 10613 10615 10615 10616 10617 10618 10620 10622 10624 10626 10628 10629 10631 10633 10634 10635 10636 10638 10639 10641 10642 10643 10644 10646 10647 10648 10649 10650 10651 10653 10654 10655 10656 10656 10657 10657 10658 10659 10661
10552 10553 10554 10555 10556 10557 10559 10560 10560 10560 10560 10560 10560 10561 10561 10562 10563 10564 10565 10565 10566 10567 10568 10569 10570 10570 10571 10572 10573 10575 10576 10578 10579 10581 10582 10584 10586 10587 10590 10592 10594 10596 10598 10601 10603 10605 10607 10609 10610 10610 10611 10612 10614 10615 10617 10619 10621 10623 10624 10626 10627 10629 10630 10631 10632 10634 10635 10637 10638 10639 10640 10641 10643 10644 10645 10646 10648 10649 10649 10650 10650 10651 10651 10653 10654
10546 10547 10547 10548 10549 10550 10551 10552 10552 10552 10552 10552 10552 10553 10554 10555 10556 10557 10558 10559 10560 10561 10562 10562 10563 10564 10565 10566 10567 10568 10569 10571 10573 10574 10576 10578 10579 10581 10582 10584 10586 10588 10590 10593 10595 10597 10599 10601 10603 10604 10604 10606 10607 10609 10611 10612 10614 10616 10618 10620 10621 10622 10623 10624 10626 10627 10628 10630 10631 10632 10633 10635 10636 10638 10639 10640 10641 10642 10643 10644 10644 10645 10645 10646 10647
10540 10540 10541 10542 10543 10543 10544 10543 10543 10543 10543 10543 10544 10545 10546 10547 10548 10549 10551 10552 10553 10554 10555 10555 10556 10558 10558 10559 10560 10561 10563 10564 10566 10568 10570 10571 10573 10575 10576 10577 10579 10580 10582 10584 10586 10588 10590 10592 10595 10597 10598 10599 10600 10602 10603 10605 10607 10609 10610 10613 10614 10615 10616 10617 10619 10620 10622 10623 10624 10625 10627 10628 10630 10631 10633 10634 10635 10635 10636 10637 10638 10639 10639 10639 10640
10533 10533 10533 10535 10536 10537 10536 10534 10533 10533 10534 10534 10535 10536 10536 10537 10538 10540 10541 10543 10544 10545 10547 10548 10550 10551 10551 10552 10553 10554 10555 10557 10559 10561 10562 10564 10565 10567 10569 10570 10572 10573 10574 10576 10578 10580 10582 10583 10585 10588 10590 10591 10593 10594 10596 10598 10600 10602 10603 10605 10607 10608 10609 10610 10611 10612 10614 10616 10617 10618 10619 10621 10622 10624 10626 10627 10628 10628 10629 10630 10631 10632 10632 10633 10633
10525 10524 10525 10527 10530 10530 10528 10527 10525 10526 10527 10527 10527 10527 10527 10528 10529 10531 10532 10534 10535 10537 10539 10541 10542 10543 10544 10545 10546 10547 10548 10550 10551 10553 10555 10556 10558 10559 10561 10562 10564 10565 10567 10568 10570 10572 10574 10575 10577 10579 10581 10583 10585 10587 10589 10591 10592 10594 10596 10598 10600 10601 10601 10602 10602 10604 10606 10608 10609 10610 10611 10613 10615 10616 10618 10619 10620 10621 10621 10622 10623 10624 10625 10625 10626
10517 10516 10517 10520 10522 10522 10521 10520 10519 10519 10520 10521 10520 10518 10518 10519 10521 10522 10524 10526 10528 10529 10531 10533 10534 10535 10536 10537 10538 10539 10541 10543 10544 10546 10547 10549 10550 10552 10553 10554 10556 10557 10559 10560 10562 10563 10565 10567 10569 10570 10572 10574 10575 10578 10581 10583 10584 10586 10588 10589 10591 10593 10594 10594 10595 10596 10597 10599 10601 10602 10603 10605 10606 10608 10609 10611 10612 10613 10613 10614 10614 10615 10616 10617 10618
10509 10509 10509 10511 10514 10514 10512 10512 10512 10512 10513 10513 10512 10509 10509 10511 10514 10515 10517 10520 10521 10522 10523 10524 10525 10526 10527 10529 10530 10531 10533 10535 10536 10538 10539 10540 10542 10544 10545 10546 10548 10549 10550 10552 10553 10555 10556 10557 10559 10561 10563 10565 10566 10569 10572 10575 10576 10578 10580 10581 10582 10583 10584 10585 10586 10587 10589 10591 10593 10594 10595 10596 10597 10598 10600 10601 10603 10604 10605 10605 10605 10606 10608 10609 10610
10501 10502 10502 10503 10505 10506 10505 10504 10504 10505 10507 10507 10504 10502 10501 10502 10506 10509 10511 10513 10514 10515 10515 10516 10517 10517 10518 10520 10522 10523 10524 10526 10528 10529 10530 10532 10533 10535 10536 10538 10539 10541 10542 10543 10545 10546 10547 10548 10550 10552 10554 10556 10557 10559 10563 10566 10567 10568 10571 10573 10573 10573 10574 10575 10576 10578 10580 10582 10584 10585 10587 10587 10588 10589 10590 10592 10593 10595 10596 10596 10597 10597 10598 10600 10601
10493 10495 10495 10496 10496 10497 10497 10498 10497 10497 10498 10498 10497 10497 10495 10493 10496 10501 10504 10505 10506 10507 10508 10509 10510 10510 10510 10511 10513 10515 10516 10518 10520 10521 10522 10523 10524 10526 10527 10529 10530 10532 10533 10535 10536 10537 10539 10539 10540 10542 10544 10546 10547 10550 10552 10555 10557 10559 10561 10563 10563 10563 10566 10567 10567 10568 10571 10573 10574 10575 10576 10577 10578 10579 10581 10583 10583 10585 10587 10587 10588 10588 10589 10591 10592
10487 10487 10488 10489 10489 10489 10489 10491 10491 10490 10490 10490 10490 10490 10489 10487 10487 10489 10493 10495 10496 10499 10501 10501 10502 10502 10502 10504 10505 10507 10508 10510 10511 10512 10513 10514 10515 10517 10519 10521 10522 10523 10524 10526 10527 10529 10530 10531 10531 10533 10535 10535 10537 10540 10542 10544 10547 10549 10550 10553 10553 10553 10555 10558 10558 10559 10561 10564 10565 10566 10566 10567 10569 10570 10571 10572 10572 10574 10576 10578 10578 10579 10580 10581 10583
10479 10480 10481 10481 10481 10481 10482 10483 10485 10484 10483 10482 10483 10483 10482 10482 10481 10481 10482 10483 10485 10488 10491 10492 10493 10494 10494 10495 10497 10499 10500 10501 10502 10503 10504 10504 10506 10507 10510 10512 10513 10514 10515 10516 10518 10520 10521 10522 10523 10523 10525 10525 10526 10529 10531 10533 10536 10539 10539 10541 10544 10544 10545 10548 10548 10548 10551 10555 10556 10556 10557 10558 10561 10561 10560 10561 10561 10563 10566 10568 10569 10570 10571 10572 10573
10472 10472 10473 10473 10473 10474 10474 10475 10477 10477 10476 10475 10475 10475 10475 10476 10476 10474 10474 10474 10476 10477 10479 10481 10483 10484 10485 10486 10488 10489 10490 10491 10492 10493 10494 10495 10496 10498 10500 10501 10502 10503 10505 10506 10508 10510 10512 10513 10513 10513 10514 10515 10516 10518 10521 10523 10526 10529 10529 10530 10533 10534 10535 10538 10538 10536 10538 10543 10547 10548 10547 10547 10551 10552 10550 10550 10551 10552 10555 10558 10560 10562 10563 10564 10564
10464 10464 10465 10465 10465 10466 10467 10468 10468 10469 10469 10468 10467 10467 10467 10467 10467 10468 10467 10467 10469 10468 10467 10468 10470 10472 10475 10477 10478 10480 10480 10481 10482 10483 10484 10485 10486 10488 10489 10490 10492 10493 10494 10496 10497 10499 10501 10502 10503 10503 10504 10505 10506 10507 10509 10512 10515 10517 10518 10519 10521 10524 10525 10527 10527 10525 10524 10528 10536 10540 10538 10536 10538 10543 10541 10539 10540 10541 10542 10545 10548 10551 10553 10554 10554
10454 10455 10456 10457 10457 10458 10459 10460 10460 10461 10461 10461 10459 10458 10457 10456 10457 10460 10459 10459 10461 10460 10459 10459 10459 10459 10463 10466 10469 10471 10471 10471 10472 10473 10474 10475 10476 10478 10480 10480 10481 10482 10484 10485 10486 10487 10489 10491 10492 10492 10492 10495 10497 10496 10496 10500 10504 10505 10507 10508 10509 10513 10515 10515 10516 10515 10511 10513 10522 10530 10531 10525 10524 10531 10532 10528 10528 10531 10532 10534 10535 10537 10539 10541 10543
10445 10445 10446 10447 10448 10449 10451 10451 10452 10453 10454 10452 10450 10447 10447 10446 10447 10450 10451 10451 10452 10452 10451 10452 10451 10450 10452 10455 10457 10460 10460 10461 10462 10462 10463 10464 10466 10468 10469 10471 10472 10472 10473 10474 10475 10476 10477 10479 10481 10482 10481 10483 10486 10485 10484 10487 10491 10494 10495 10496 10498 10501 10503 10504 10504 10504 10500 10499 10505 10516 10522 10516 10511 10517 10521 10517 10516 10520 10523 10524 10525 10525 10526 10527 10529
10434 10435 10437 10438 10439 10440 10441 10442 10443 10444 10444 10443 10439 10436 10437 10438 10439 10440 10441 10441 10443 10444 10445 10445 10445 10444 10444 10445 10446 10447 10449 10450 10451 10452 10453 10454 10456 10457 10458 10460 10461 10461 10462 10462 10463 10464 10466 10467 10469 10471 10471 10471 10472 10473 10473 10474 10478 10481 10483 10486 10487 10489 10491 10493 10494 10493 10490 10488 10490 10501 10511 10506 10498 10502 10507 10504 10505 10510 10511 10513 10514 10513 10514 10515 10517
10423 10425 10426 10428 10429 10431 10431 10430 10430 10431 10432 10432 10430 10428 10429 10430 10430 10430 10431 10432 10433 10435 10436 10436 10436 10437 10437 10436 10436 10436 10437 10439 10440 10441 10442 10443 10444 10445 10446 10448 10448 10449 10449 10450 10451 10453 10454 10455 10457 10458 10459 10459 10458 10460 10461 10461 10464 10466 10470 10474 10475 10476 10479 10482 10483 10481 10479 10478 10479 10486 10497 10496 10488 10489 10493 10492 10494 10498 10499 10499 10500 10500 10500 10503 10506
10413 10414 10416 10417 10420 10420 10419 10418 10418 10418 10418 10419 10420 10420 10420 10420 10420 10420 10422 10423 10423 10423 10424 10425 10425 10427 10427 10426 10426 10426 10426 10428 10428 10429 10430 10430 10431 10432 10434 10435 10436 10436 10436 10437 10439 10441 10442 10443 10444 10445 10446 10446 10446 10447 10448 10449 10450 10452 10456 10460 10461 10462 10467 10471 10471 10469 10468 10468 10468 10471 10481 10485 10479 10478 10482 10481 10482 10485 10486 10485 10485 10486 10488 10491 10493
10402 10404 10406 10408 10409 10408 10407 10406 10406 10406 10405 10406 10408 10409 10409 10409 10408 10409 10411 10412 10412 10413 10413 10413 10413 10414 10415 10415 10415 10415 10416 10416 10416 10417 10418 10418 10418 10420 10421 10423 10424 10423 10423 10424 10426 10428 10429 10430 10430 10431 10432 10432 10433 10434 10434 10435 10437 10438 10442 10446 10446 10448 10453 10457 10458 10458 10457 10456 10454 10455 10464 10471 10469 10468 10471 10472 10471 10471 10471 10471 10470 10471 10475 10477 10479
10390 10393 10395 10397 10397 10396 10395 10395 10395 10395 10395 10394 10395 10396 10398 10398 10398 10398 10399 10400 10401 10402 10402 10402 10401 10401 10402 10403 10403 10404 10404 10405 10404 10405 10405 10405 10406 10408 10410 10411 10412 10411 10411 10412 10414 10414 10415 10416 10416 10417 10418 10419 10420 10421 10421 10422 10424 10425 10428 10432 10433 10435 10439 10442 10443 10444 10446 10444 10440 10439 10447 10455 10455 10456 10459 10461 10461 10459 10456 10456 10456 10457 10460 10463 10466